Regional Weather Roundup
Issued by NWS Charleston, WV

Home | Current Version | Previous Version | Graphics & Text | Print | Product List | Glossary On
Versions: 1 2 3 4 5 6 7 8 9 10 11 12 13 14 15 16 17 18 19 20 21 22 23 24 25 26 27 28 29 30 31 32 33 34 35 36 37 38 39 40 41 42 43 44 45 46 47 48 49 50
000
ASUS41 KRLX 290010
RWRRLX
West Virginia Regional Weather Roundup
National Weather Service Charleston WV
800 PM EDT SUN MAY 28 2017

Note: "fair" indicates few or no clouds below 12,000 feet with no
significant weather and/or obstructions to visibility.

WVZ003-290100-
Northern Panhandle of West Virginia

CITY           SKY/WX    TMP DP  RH WIND       PRES   REMARKS
WHEELING       PTCLDY    73  61  65 SW10      29.76R
$$

WVZ009-290100-
Northwest West Virginia

CITY           SKY/WX    TMP DP  RH WIND       PRES   REMARKS
PARKERSBURG    MOCLDY    74  62  66 SW8       29.81R
$$

WVZ006-290100-
Western West Virginia

CITY           SKY/WX    TMP DP  RH WIND       PRES   REMARKS
HUNTINGTON     CLOUDY    72  63  73 SW6       29.82S
$$

WVZ015-290100-
West Central West Virginia

CITY           SKY/WX    TMP DP  RH WIND       PRES   REMARKS
CHARLESTON     PTCLDY    71  62  73 SW6       29.83S
$$

WVZ022-031-290100-
North Central West Virginia

CITY           SKY/WX    TMP DP  RH WIND       PRES   REMARKS
CLARKSBURG     CLOUDY    71  62  73 S9        29.80S
MORGANTOWN     CLOUDY    74  62  66 SW5       29.80R
$$

WVZ025-035-042-045-290100-
Southern West Virginia

CITY           SKY/WX    TMP DP  RH WIND       PRES   REMARKS
BECKLEY        CLOUDY    67  57  70 W8        29.91R
LOGAN            N/A     70  61  73 SW5       29.87S
BLUEFIELD      MOCLDY    63  60  90 W8        29.93S
LEWISBURG      MOCLDY    67  59  76 CALM      29.89S
$$

WVZ047-290100-
Northern Mountains of West Virginia

CITY           SKY/WX    TMP DP  RH WIND       PRES   REMARKS
ELKINS         HVY RAIN  65  59  81 SW14G25   29.87R
$$

WVZ052-290100-
Eastern Panhandle of West Virginia

CITY           SKY/WX    TMP DP  RH WIND       PRES   REMARKS
MARTINSBURG    CLOUDY    66  62  87 CALM      29.84R
PETERSBURG     HVY RAIN  68  67  98 SE6       29.83S VSB 1/2
$$



USA.gov is the U.S. government's official web portal to all federal, state and local government web resources and services.